Krakow, Poland

8:08 AM CET on February 18, 2018 (GMT +0100)
John Paul II International / Krakow-Balice

Weather History for EPKK - November, 2012

Change the Weather History Date:

Thursday, November 22, 2012

  Actual Average Record
Temperature  
Mean Temperature 41 °F -  
Max Temperature 44 °F 37 °F 59 °F (2002)
Min Temperature 38 °F 27 °F 14 °F (1998)
Degree Days  
Heating Degree Days 24    
Moisture  
Dew Point 41 °F    
Average Humidity 98    
Maximum Humidity 100    
Minimum Humidity 91    
Precipitation  
Precipitation 0.00 in 0.06 in - ()
Sea Level Pressure  
Sea Level Pressure 30.25 in    
Wind  
Wind Speed 3 mph ()    
Max Wind Speed 9 mph    
Max Gust Speed -    
Visibility 1.5 miles    
Events Fog , Rain    
Averages and records for this station are not official NWS values.
T = Trace of Precipitation, MM = Missing Value Source: Averaged Metar Reports

Daily Weather History Graph

Daily Weather History Graph

Search for Another Location

Airport or City:

Trip Planner

Search our weather history database for the weather conditions in past years. The results will help you decide how hot, cold, wet, or windy it might be!

Date:

Astronomy

Nov. 22, 2012 Rise Set
Actual Time 7:05 AM CET 3:48 PM CET
Civil Twilight 6:28 AM CET 4:24 PM CET
Nautical Twilight 5:48 AM CET 5:04 PM CET
Astronomical Twilight 5:10 AM CET 5:43 PM CET
Moon 12:54 PM CET (11/22) 12:34 AM CET (11/22)
Length of Visible Light 9h 55m
Length of Day
8h 42m
Waxing Gibbous, 69% of the Moon is Illuminated
Nov 22
Waxing Gibbous
Nov 28
Full
Dec 6
Last Quarter
Dec 13
New
Dec 20
First Quarter

Hourly Weather History & Observations

Time (CET) Temp. Windchill Dew Point Humidity Pressure Visibility Wind Dir Wind Speed Gust Speed Precip Events Conditions
12:00 AM 39.2 °F 34.2 °F 39.2 °F 100% 30.18 in 1.2 mi ENE 6.9 mph - N/A   Mostly Cloudy
12:30 AM 39.2 °F 34.2 °F 39.2 °F 100% 30.18 in 1.2 mi ENE 6.9 mph - N/A   Mostly Cloudy
1:00 AM 39 °F - 38 °F 96% 30.23 in 1 mi NE 8.9 mph - -   Mist
1:00 AM 39.2 °F 33.6 °F 39.2 °F 100% 30.18 in 1.2 mi ENE 8.1 mph - N/A   Mostly Cloudy
1:30 AM 39.2 °F 35.0 °F 39.2 °F 100% 30.18 in 1.2 mi ENE 5.8 mph - N/A   Light Drizzle
2:00 AM 39.2 °F 35.0 °F 39.2 °F 100% 30.18 in 1.1 mi ENE 5.8 mph - N/A   Light Drizzle
2:30 AM 39.2 °F 35.9 °F 39.2 °F 100% 30.21 in 0.9 mi NE 4.6 mph - N/A Rain Light Rain
3:00 AM 39.2 °F 35.9 °F 39.2 °F 100% 30.18 in 0.9 mi NE 4.6 mph - N/A Rain Light Rain
3:30 AM 39.2 °F 35.0 °F 39.2 °F 100% 30.18 in 1.2 mi ENE 5.8 mph - N/A Rain Light Rain
4:00 AM 39 °F - 38 °F 95% 30.24 in 2 mi NE 8.9 mph - - Rain Light Rain
4:00 AM 39.2 °F 34.2 °F 39.2 °F 100% 30.18 in 1.6 mi ENE 6.9 mph - N/A Rain Light Rain
4:30 AM 39.2 °F 35.0 °F 39.2 °F 100% 30.18 in 1.6 mi ENE 5.8 mph - N/A   Mostly Cloudy
5:00 AM 39.2 °F 37.0 °F 39.2 °F 100% 30.18 in 1.6 mi NE 3.5 mph - N/A   Mostly Cloudy
5:30 AM 39.2 °F 35.9 °F 39.2 °F 100% 30.18 in 1.6 mi NE 4.6 mph - N/A   Mostly Cloudy
6:00 AM 39.2 °F 35.0 °F 39.2 °F 100% 30.21 in 1.6 mi NE 5.8 mph - N/A   Mostly Cloudy
6:30 AM 39.2 °F 35.9 °F 39.2 °F 100% 30.21 in 1.6 mi NE 4.6 mph - N/A   Mostly Cloudy
7:00 AM 39 °F - 38 °F 97% 30.27 in 1 mi NNE 4.5 mph - -   Mist
7:00 AM 39.2 °F 35.9 °F 39.2 °F 100% 30.21 in 1.2 mi NE 4.6 mph - N/A   Mostly Cloudy
7:30 AM 39.2 °F - 39.2 °F 100% 30.24 in 1.9 mi NE 2.3 mph - N/A   Mostly Cloudy
8:00 AM 39.2 °F - 39.2 °F 100% 30.24 in 1.9 mi NNE 1.2 mph - N/A   Mostly Cloudy
8:30 AM 39.2 °F - 39.2 °F 100% 30.24 in 1.9 mi Calm Calm - N/A   Mostly Cloudy
9:00 AM 39.2 °F - 39.2 °F 100% 30.24 in 2.2 mi Calm Calm - N/A   Mostly Cloudy
9:30 AM 41.0 °F - 41.0 °F 100% 30.27 in 2.5 mi East 2.3 mph - N/A   Mostly Cloudy
10:00 AM 41 °F - 40 °F 95% 30.31 in 2 mi SE 2.2 mph - -   Mist
10:00 AM 41.0 °F - 41.0 °F 100% 30.27 in 2.5 mi SE 1.2 mph - N/A   Mostly Cloudy
10:30 AM 41.0 °F - 41.0 °F 100% 30.27 in 1.9 mi SSE 1.2 mph - N/A   Mostly Cloudy
11:00 AM 41.0 °F - 41.0 °F 100% 30.27 in 1.7 mi Variable 1.2 mph - N/A   Mostly Cloudy
11:30 AM 42.8 °F - 41.0 °F 93% 30.27 in 1.7 mi SSE 2.3 mph - N/A   Mostly Cloudy
12:00 PM 42.8 °F - 41.0 °F 93% 30.27 in 1.7 mi SSW 1.2 mph - N/A   Mostly Cloudy
12:30 PM 42.8 °F - 41.0 °F 93% 30.27 in 1.7 mi SE 1.2 mph - N/A   Mostly Cloudy
1:00 PM 43 °F - 42 °F 95% 30.30 in 2 mi Calm Calm - -   Mist
1:00 PM 42.8 °F - 42.8 °F 100% 30.27 in 1.7 mi Calm Calm - N/A   Mostly Cloudy
1:30 PM 44.6 °F - 42.8 °F 93% 30.27 in 1.9 mi Calm Calm - N/A   Mostly Cloudy
2:00 PM 44.6 °F - 42.8 °F 93% 30.27 in 2.2 mi Calm Calm - N/A   Mostly Cloudy
2:30 PM 44.6 °F - 42.8 °F 93% 30.27 in 2.2 mi Calm Calm - N/A   Mostly Cloudy
3:00 PM 44.6 °F - 42.8 °F 93% 30.27 in 2.2 mi Calm Calm - N/A   Mostly Cloudy
3:30 PM 44.6 °F - 42.8 °F 93% 30.27 in 1.9 mi Calm Calm - N/A   Mostly Cloudy
4:00 PM 44 °F - 42 °F 91% 30.32 in 2 mi WNW 2.2 mph - -   Mist
4:00 PM 42.8 °F - 42.8 °F 100% 30.27 in 1.7 mi Calm Calm - N/A   Mostly Cloudy
4:30 PM 44.6 °F - 42.8 °F 93% 30.27 in 1.9 mi Calm Calm - N/A   Mostly Cloudy
5:00 PM 42.8 °F - 42.8 °F 100% 30.27 in 1.6 mi Calm Calm - N/A   Mostly Cloudy
5:30 PM 42.8 °F - 42.8 °F 100% 30.27 in 1.2 mi Calm Calm - N/A   Mostly Cloudy
6:00 PM 42.8 °F - 42.8 °F 100% 30.27 in 1.6 mi Calm Calm - N/A   Mostly Cloudy
6:30 PM 42.8 °F - 42.8 °F 100% 30.27 in 1.1 mi Calm Calm - N/A   Mostly Cloudy
7:00 PM 43 °F - 41 °F 92% 30.32 in 1 mi North 2.2 mph - -   Mist
7:00 PM 42.8 °F - 42.8 °F 100% 30.27 in 1.1 mi Calm Calm - N/A   Mostly Cloudy
7:30 PM 41.0 °F - 41.0 °F 100% 30.27 in 1.1 mi ENE 1.2 mph - N/A   Mostly Cloudy
8:00 PM 42.8 °F - 42.8 °F 100% 30.27 in 0.9 mi NNE 1.2 mph - N/A   Mostly Cloudy
8:30 PM 42.8 °F - 42.8 °F 100% 30.30 in 0.7 mi NNE 2.3 mph - N/A   Mostly Cloudy
9:00 PM 41.0 °F - 41.0 °F 100% 30.27 in 0.7 mi NNE 1.2 mph - N/A   Mostly Cloudy
9:30 PM 41.0 °F - 41.0 °F 100% 30.30 in 0.7 mi NNE 1.2 mph - N/A   Mostly Cloudy
10:00 PM 42 °F - 40 °F 92% 30.33 in 1 mi Calm Calm - -   Mist
10:00 PM 41.0 °F - 41.0 °F 100% 30.30 in 0.7 mi Calm Calm - N/A   Mostly Cloudy
10:30 PM 41.0 °F - 41.0 °F 100% 30.27 in 0.6 mi East 1.2 mph - N/A   Mostly Cloudy
11:00 PM 41.0 °F - 41.0 °F 100% 30.27 in 0.6 mi ENE 1.2 mph - N/A   Mostly Cloudy
11:30 PM 41.0 °F - 41.0 °F 100% 30.27 in 0.5 mi Calm Calm - N/A Fog Fog